Regional Weather Roundup
Issued by NWS Charleston, SC

Current Version | Previous Version | Graphics & Text | Print | Product List | Glossary On
Versions: 1 2 3 4 5 6 7 8 9 10 11 12 13 14 15 16 17 18 19 20 21 22 23 24 25 26 27 28 29 30 31 32 33 34 35 36 37 38 39 40 41 42 43 44 45 46 47 48 49 50
000
ASUS42 KCHS 020327
RWRCHS

REGIONAL WEATHER ROUNDUP
NATIONAL WEATHER SERVICE CHARLESTON SC
1100 PM EDT SAT AUG 01 2015

NOTE: "FAIR" INDICATES FEW OR NO CLOUDS BELOW 12,000 FEET WITH NO
SIGNIFICANT WEATHER AND/OR OBSTRUCTIONS TO VISIBILITY.

NOT ALL STATIONS ARE QUALITY CONTROLLED BY THE NATIONAL
WEATHER SERVICE. USE DATA WITH CAUTION...ESPECIALLY
DEWPOINT OBSERVATIONS.

SCZ027-030-031-034>040-042>050-020400-
...SOUTHEAST SOUTH CAROLINA...

CITY           SKY/WX    TMP DP  RH WIND       PRES   REMARKS
N CHARLESTON   PTCLDY    77  73  87 S6        29.93R
WATERFRONT PRK   N/A     80  76  87 VRB3      29.90R
MOUNT PLEASANT LGT RAIN  75  75 100 CALM      29.93S
JOHNS ISLAND   FAIR      77  73  88 CALM      29.93S
PINOPOLIS      NOT AVBL
MONCKS CORNER  FAIR      77  72  83 CALM      29.93S
SUMMERVILLE    FAIR      75  75 100 CALM      29.94S
BEAUFORT MCAS  PTCLDY    81  77  88 CALM      29.93R
BEAUFORT ARPT  FAIR      77  77 100 CALM      29.92S
HILTON HEAD IS CLEAR     81  77  89 S5        29.93S
WALTERBORO     CLEAR     77  75  94 CALM      29.94S
ALLENDALE      FAIR      75  73  94 CALM      29.93R

...SOUTHERN MIDLANDS AND PEE DEE...

CITY           SKY/WX    TMP DP  RH WIND       PRES   REMARKS
GEORGETOWN     NOT AVBL
KINGSTREE      NOT AVBL
ORANGEBURG     CLEAR     77  72  84 CALM      29.94R
BARNWELL       FAIR      75  73  94 CALM      29.94S
AIKEN          FAIR      77  68  73 S5        29.97S
MANNING        RAIN      79  72  78 S5        29.94R
COLUMBIA       PTCLDY    83  69  62 S5        29.92R
SUMTER         PTCLDY    81  71  71 SW8       29.92R
FLORENCE       CLOUDY    79  74  84 S7        29.92S
MYRTLE BEACH   CLEAR     79  72  78 W3        29.95R
N MYRTLE BEACH CLEAR     81  73  76 SW9       29.92S

$$

GAZ063-065-086>088-099>101-113>116-118-119-134>141-150-020400-
...SOUTHEAST GEORGIA...

CITY           SKY/WX    TMP DP  RH WIND       PRES   REMARKS
SAVANNAH ARPT  PTCLDY    79  75  87 SE3       29.92R
HUNTER AAF     PTCLDY    80  78  92 S6        29.90R
FORT STEWART   NOT AVBL
STATESBORO     PTCLDY    75  32  20 CALM      29.93R
SYLVANIA       CLOUDY    76  76 100 CALM      29.94S
CLAXTON        NOT AVBL

...CSRA...CENTRAL AND FAR SOUTHEAST GEORGIA...

CITY           SKY/WX    TMP DP  RH WIND       PRES   REMARKS
THOMSON        CLEAR     78  74  88 CALM      29.97F
AUGUSTA-BUSH   CLEAR     77  74  90 CALM      29.92R
AUGUSTA-DANIEL PTCLDY    80  72  76 SE5       29.94R
SWAINSBORO     FAIR     N/A N/A N/A CALM      29.94S
VIDALIA        PTCLDY    73  72  94 CALM      29.92F
EASTMAN        FAIR      76  76 100 CALM      29.94S
HAZLEHURST     FAIR      75  75 100 NE3       29.90F
ALMA           CLOUDY    75  73  93 CALM      29.90S
WAYCROSS       CLOUDY    80  79  96 S6        29.89F
JESUP          FAIR      81  77  89 CALM      29.91F
BAXLEY         FAIR      77  73  88 NE3       29.91S
BRUNSWICK      CLOUDY    79  73  83 SW7       29.92S
SAINT SIMONS   CLOUDY    80  74  81 SW13      29.91R

$$

SCZ027-028-034-036>038-045-046-048>050-GAZ119-141-020400-
...LAKE AND SUPPLEMENTAL COASTAL OBSERVATIONS...

STATION/POSITION TIME  TEMP    WIND        PRES    WAVE   SWELL
                       AIR SEA DIR/SP/G            HT/PER HT/PER/DIR
                 (UTC) (F)     (DEG/KT/KT) (MB)    (FT/S) (FT/S/D)
UPR LAKE MARION  NOT AVBL
WINYAH BAY       0245   80     210/  5     1012.0S
LAKE MURRAY      0200   86     210/ 10/ 12 1012.2R
ACE BASIN NERRS  NOT AVBL
FORT PULASKI     0300   81 86  160/  5/  9 1013.7R
SAPELO ISLAND    0300   81     210/ 11     1013.0S

$$

ANZ835-935-AMZ111-154-330-350-352-354-370-450-454-472-020400-
...C-MAN AND BUOY OBSERVATIONS...

STATION/POSITION TIME  TEMP    WIND        PRES    WAVE   SWELL
                       AIR SEA DIR/SP/G            HT/PER HT/PER/DIR
                 (UTC) (F)     (DEG/KT/KT) (MB)    (FT/S) (FT/S/D)
BUOY 41004       0250   81 84  230/  6/  8 1013.3R   4/ 6   3/ 6
BUOY 41008       0250   81 83  190/ 14/ 16 1013.1R   3/ 6   2/ 90/10
FOLLY BEACH CMAN 0300   81     190/  8/ 10 1013.7R
CAPERS NEARSHORE 0208   81     200/  6/ 10 1013.5R
FRIPP NEARSHORE  NOT AVBL


STATION/POSITION TIME  TEMP    WIND        PRES    WAVE   SWELL
                       AIR SEA DIR/SP/G            HT/PER HT/PER/DIR
                 (UTC) (F)     (DEG/KT/KT) (MB)    (FT/S) (FT/S/D)
5E ST. MARYS GA  0221      83                N/A     3/ 5
FRYING PAN BUOY  0250   82 83  200/ 14/ 16 1013.9R   4/ 7   3/170/ 7
BUOY 41025       0250   83 85  210/ 16/ 17 1012.9S   4/ 7   2/190/ 7
CAPE LOOKOUT NC  0300   80     220/ 10/ 12 1013.1F
BUOY 41002       0250   83 81  210/ 16/ 19 1016.1R   7/ 7   3/ 70/12
BUOY 41010       0220   78 84  210/ 10/ 12 1016.7R
ST AUGUSTINE FL  0300   76 81  180/ 14/ 15 1015.2R


$$



USA.gov is the U.S. government's official web portal to all federal, state and local government web resources and services.